Time,TemperatureF,DewpointF,PressureIn,WindDirection,WindDirectionDegrees,WindSpeedMPH,WindSpeedGustMPH,Humidity,HourlyPrecipIn,Conditions,Clouds,dailyrainin,SoftwareType,DateUTC
2013-01-14 00:00:00,59.0,59.0,27.90,SE,135,2.0,0.0,100,0.12,,,0.00,Rainwise IP-100,2013-01-14 05:00:00,
2013-01-14 00:02:00,60.0,60.0,27.90,SSE,157,3.0,4.0,100,0.06,,,0.01,Rainwise IP-100,2013-01-14 05:02:00,
2013-01-14 00:07:00,59.0,59.0,27.89,WSW,247,0.0,4.0,100,0.12,,,0.02,Rainwise IP-100,2013-01-14 05:07:00,
2013-01-14 00:12:00,59.0,59.0,27.89,SSE,157,0.0,3.0,100,0.12,,,0.02,Rainwise IP-100,2013-01-14 05:12:00,
2013-01-14 00:17:00,59.0,59.0,27.90,WSW,247,3.0,4.0,100,0.06,,,0.03,Rainwise IP-100,2013-01-14 05:17:00,
2013-01-14 00:22:00,59.0,59.0,27.90,SSW,202,0.0,3.0,100,0.06,,,0.03,Rainwise IP-100,2013-01-14 05:22:00,
2013-01-14 00:27:00,59.0,59.0,27.90,WSW,247,0.0,6.0,100,0.06,,,0.04,Rainwise IP-100,2013-01-14 05:27:00,
2013-01-14 00:32:00,59.0,59.0,27.90,WSW,247,0.0,2.0,100,0.06,,,0.04,Rainwise IP-100,2013-01-14 05:32:00,
2013-01-14 00:37:00,59.0,59.0,27.90,WSW,247,1.0,3.0,100,0.12,,,0.06,Rainwise IP-100,2013-01-14 05:37:00,
2013-01-14 00:42:00,59.0,59.0,27.90,WNW,292,0.0,4.0,100,0.12,,,0.07,Rainwise IP-100,2013-01-14 05:42:00,
2013-01-14 00:47:00,59.0,59.0,27.90,SW,225,4.0,4.0,100,0.06,,,0.07,Rainwise IP-100,2013-01-14 05:47:00,
2013-01-14 00:52:00,59.0,59.0,27.90,WSW,247,0.0,4.0,100,0.06,,,0.07,Rainwise IP-100,2013-01-14 05:52:00,
2013-01-14 00:57:00,59.0,59.0,27.90,WSW,247,2.0,3.0,100,0.00,,,0.07,Rainwise IP-100,2013-01-14 05:57:00,
2013-01-14 01:02:00,59.0,59.0,27.90,West,270,3.0,6.0,100,0.06,,,0.08,Rainwise IP-100,2013-01-14 06:02:00,
2013-01-14 01:07:00,59.0,59.0,27.90,West,270,0.0,6.0,100,0.06,,,0.09,Rainwise IP-100,2013-01-14 06:07:00,
2013-01-14 01:12:00,59.0,59.0,27.90,WSW,247,0.0,7.0,100,0.12,,,0.10,Rainwise IP-100,2013-01-14 06:12:00,
2013-01-14 01:17:00,59.0,59.0,27.90,SW,225,0.0,3.0,100,0.12,,,0.10,Rainwise IP-100,2013-01-14 06:17:00,
2013-01-14 01:22:00,59.0,59.0,27.90,SW,225,0.0,3.0,100,0.00,,,0.10,Rainwise IP-100,2013-01-14 06:22:00,
2013-01-14 01:27:00,59.0,59.0,27.91,WSW,247,0.0,2.0,100,0.00,,,0.11,Rainwise IP-100,2013-01-14 06:27:00,
2013-01-14 01:32:00,59.0,59.0,27.91,WNW,292,0.0,2.0,100,0.06,,,0.11,Rainwise IP-100,2013-01-14 06:32:00,
2013-01-14 01:37:00,59.0,59.0,27.90,WNW,292,0.0,2.0,100,0.06,,,0.11,Rainwise IP-100,2013-01-14 06:37:00,
2013-01-14 01:42:00,59.0,59.0,27.90,West,270,0.0,3.0,100,0.00,,,0.11,Rainwise IP-100,2013-01-14 06:42:00,
2013-01-14 01:47:00,59.0,59.0,27.90,West,270,0.0,0.0,100,0.00,,,0.11,Rainwise IP-100,2013-01-14 06:47:00,
2013-01-14 01:52:00,59.0,59.0,27.90,West,270,0.0,0.0,100,0.06,,,0.12,Rainwise IP-100,2013-01-14 06:52:00,
2013-01-14 01:57:00,59.0,59.0,27.91,West,270,0.0,0.0,100,0.06,,,0.12,Rainwise IP-100,2013-01-14 06:57:00,
2013-01-14 02:02:00,59.0,59.0,27.91,West,270,0.0,0.0,100,0.06,,,0.13,Rainwise IP-100,2013-01-14 07:02:00,
2013-01-14 02:07:00,59.0,59.0,27.91,West,270,0.0,0.0,100,0.12,,,0.14,Rainwise IP-100,2013-01-14 07:07:00,
2013-01-14 02:12:00,59.0,59.0,27.91,West,270,0.0,0.0,99,0.12,,,0.15,Rainwise IP-100,2013-01-14 07:12:00,
2013-01-14 02:17:00,58.0,57.5,27.91,West,270,0.0,0.0,98,0.12,,,0.16,Rainwise IP-100,2013-01-14 07:17:00,
2013-01-14 02:22:00,59.0,59.0,27.92,SW,225,0.0,0.0,99,0.12,,,0.17,Rainwise IP-100,2013-01-14 07:22:00,
2013-01-14 02:27:00,58.0,57.5,27.92,SSW,202,0.0,3.0,98,0.06,,,0.18,Rainwise IP-100,2013-01-14 07:27:00,
2013-01-14 02:32:00,59.0,59.0,27.91,SSW,202,2.0,4.0,99,0.06,,,0.18,Rainwise IP-100,2013-01-14 07:32:00,
2013-01-14 02:37:00,59.0,59.0,27.91,South,180,1.0,5.0,99,0.12,,,0.19,Rainwise IP-100,2013-01-14 07:37:00,
2013-01-14 02:42:00,59.0,59.0,27.90,SSW,202,0.0,4.0,99,0.12,,,0.20,Rainwise IP-100,2013-01-14 07:42:00,
2013-01-14 02:47:00,58.0,57.5,27.90,SE,135,0.0,3.0,98,0.06,,,0.20,Rainwise IP-100,2013-01-14 07:47:00,
2013-01-14 02:52:00,59.0,58.0,27.90,SW,225,2.0,4.0,98,0.00,,,0.20,Rainwise IP-100,2013-01-14 07:52:00,
2013-01-14 02:57:00,59.0,58.0,27.90,West,270,0.0,6.0,98,0.00,,,0.20,Rainwise IP-100,2013-01-14 07:57:00,
2013-01-14 03:02:00,59.0,59.0,27.89,South,180,0.0,5.0,99,0.00,,,0.21,Rainwise IP-100,2013-01-14 08:02:00,
2013-01-14 03:07:00,59.0,59.0,27.89,SSE,157,3.0,5.0,99,0.06,,,0.21,Rainwise IP-100,2013-01-14 08:07:00,
2013-01-14 03:12:00,59.0,59.0,27.90,SSW,202,3.0,4.0,99,0.06,,,0.21,Rainwise IP-100,2013-01-14 08:12:00,
2013-01-14 03:17:00,59.0,59.0,27.90,SW,225,0.0,3.0,99,0.00,,,0.21,Rainwise IP-100,2013-01-14 08:17:00,
2013-01-14 03:22:00,59.0,59.0,27.89,SSE,157,1.0,5.0,99,0.00,,,0.21,Rainwise IP-100,2013-01-14 08:22:00,
2013-01-14 03:27:00,59.0,59.0,27.89,SW,225,0.0,3.0,99,0.00,,,0.21,Rainwise IP-100,2013-01-14 08:27:00,
2013-01-14 03:32:00,59.0,59.0,27.89,WSW,247,0.0,4.0,99,0.00,,,0.21,Rainwise IP-100,2013-01-14 08:32:00,
2013-01-14 03:37:00,59.0,59.0,27.89,SE,135,0.0,3.0,99,0.00,,,0.21,Rainwise IP-100,2013-01-14 08:37:00,
2013-01-14 03:42:00,59.0,59.0,27.88,WSW,247,0.0,3.0,99,0.00,,,0.21,Rainwise IP-100,2013-01-14 08:42:00,
2013-01-14 03:47:00,59.0,59.0,27.88,South,180,3.0,4.0,99,0.00,,,0.21,Rainwise IP-100,2013-01-14 08:47:00,
2013-01-14 03:52:00,59.0,59.0,27.88,NNW,337,0.0,6.0,100,0.00,,,0.21,Rainwise IP-100,2013-01-14 08:52:00,
2013-01-14 03:57:00,59.0,59.0,27.88,NNW,337,0.0,2.0,100,0.00,,,0.21,Rainwise IP-100,2013-01-14 08:57:00,
2013-01-14 04:02:00,59.0,59.0,27.88,South,180,0.0,3.0,100,0.00,,,0.21,Rainwise IP-100,2013-01-14 09:02:00,
2013-01-14 04:08:00,59.0,59.0,27.88,South,180,0.0,0.0,100,0.00,,,0.21,Rainwise IP-100,2013-01-14 09:08:00,
2013-01-14 04:13:00,59.0,59.0,27.88,East,90,0.0,0.0,100,0.00,,,0.21,Rainwise IP-100,2013-01-14 09:13:00,
2013-01-14 04:18:00,59.0,59.0,27.88,SSE,157,0.0,0.0,99,0.00,,,0.21,Rainwise IP-100,2013-01-14 09:18:00,
2013-01-14 04:23:00,60.0,60.0,27.87,SW,225,3.0,5.0,100,0.00,,,0.21,Rainwise IP-100,2013-01-14 09:23:00,
2013-01-14 04:28:00,59.0,59.0,27.87,WSW,247,0.0,5.0,99,0.00,,,0.21,Rainwise IP-100,2013-01-14 09:28:00,
2013-01-14 04:33:00,59.0,59.0,27.88,SW,225,3.0,0.0,99,0.00,,,0.21,Rainwise IP-100,2013-01-14 09:33:00,
2013-01-14 04:38:00,59.0,59.0,27.88,SSW,202,0.0,4.0,99,0.00,,,0.21,Rainwise IP-100,2013-01-14 09:38:00,
2013-01-14 04:43:00,59.0,59.0,27.88,WSW,247,0.0,4.0,99,0.00,,,0.21,Rainwise IP-100,2013-01-14 09:43:00,
2013-01-14 04:48:00,59.0,58.0,27.88,WSW,247,0.0,3.0,98,0.00,,,0.21,Rainwise IP-100,2013-01-14 09:48:00,
2013-01-14 04:53:00,59.0,59.0,27.87,South,180,3.0,0.0,99,0.00,,,0.21,Rainwise IP-100,2013-01-14 09:53:00,
2013-01-14 04:58:00,59.0,59.0,27.87,South,180,0.0,7.0,99,0.00,,,0.21,Rainwise IP-100,2013-01-14 09:58:00,
2013-01-14 05:03:00,60.0,59.5,27.86,SW,225,0.0,4.0,99,0.00,,,0.21,Rainwise IP-100,2013-01-14 10:03:00,
2013-01-14 05:08:00,59.0,59.0,27.86,ESE,112,2.0,3.0,99,0.00,,,0.21,Rainwise IP-100,2013-01-14 10:08:00,
2013-01-14 05:13:00,60.0,59.5,27.86,SSW,202,0.0,5.0,99,0.00,,,0.21,Rainwise IP-100,2013-01-14 10:13:00,
2013-01-14 05:18:00,59.0,59.0,27.86,WNW,292,0.0,0.0,99,0.00,,,0.21,Rainwise IP-100,2013-01-14 10:18:00,
2013-01-14 05:23:00,60.0,59.5,27.86,SSW,202,0.0,3.0,99,0.00,,,0.21,Rainwise IP-100,2013-01-14 10:23:00,
2013-01-14 05:28:00,59.0,59.0,27.86,SSW,202,0.0,0.0,99,0.00,,,0.21,Rainwise IP-100,2013-01-14 10:28:00,
2013-01-14 05:33:00,59.0,59.0,27.86,SSW,202,0.0,0.0,100,0.00,,,0.21,Rainwise IP-100,2013-01-14 10:33:00,
2013-01-14 05:38:00,59.0,59.0,27.86,SSW,202,0.0,0.0,99,0.00,,,0.21,Rainwise IP-100,2013-01-14 10:38:00,
2013-01-14 05:43:00,59.0,59.0,27.87,SSW,202,0.0,0.0,99,0.00,,,0.21,Rainwise IP-100,2013-01-14 10:43:00,
2013-01-14 05:48:00,59.0,59.0,27.87,SSW,202,0.0,0.0,99,0.00,,,0.21,Rainwise IP-100,2013-01-14 10:48:00,
2013-01-14 05:53:00,59.0,59.0,27.87,SSW,202,0.0,0.0,99,0.00,,,0.21,Rainwise IP-100,2013-01-14 10:53:00,
2013-01-14 05:58:00,59.0,58.0,27.87,WSW,247,0.0,0.0,97,0.00,,,0.21,Rainwise IP-100,2013-01-14 10:58:00,
2013-01-14 06:03:00,59.0,58.0,27.88,SW,225,0.0,0.0,98,0.00,,,0.21,Rainwise IP-100,2013-01-14 11:03:00,
2013-01-14 06:08:00,59.0,58.0,27.88,SSE,157,0.0,3.0,98,0.00,,,0.21,Rainwise IP-100,2013-01-14 11:08:00,
2013-01-14 06:13:00,60.0,59.5,27.86,SW,225,0.0,0.0,99,0.00,,,0.21,Rainwise IP-100,2013-01-14 11:13:00,
2013-01-14 06:18:00,60.0,59.5,27.86,SSE,157,0.0,3.0,99,0.00,,,0.21,Rainwise IP-100,2013-01-14 11:18:00,
2013-01-14 06:23:00,60.0,59.5,27.86,SSE,157,0.0,0.0,99,0.00,,,0.21,Rainwise IP-100,2013-01-14 11:23:00,
2013-01-14 06:28:00,60.0,59.5,27.86,NW,315,0.0,0.0,99,0.00,,,0.21,Rainwise IP-100,2013-01-14 11:28:00,
2013-01-14 06:33:00,60.0,59.5,27.87,WSW,247,0.0,0.0,99,0.00,,,0.21,Rainwise IP-100,2013-01-14 11:33:00,
2013-01-14 06:38:00,60.0,59.5,27.87,SW,225,0.0,4.0,99,0.00,,,0.21,Rainwise IP-100,2013-01-14 11:38:00,
2013-01-14 06:43:00,60.0,60.0,27.88,North,360,0.0,3.0,100,0.00,,,0.21,Rainwise IP-100,2013-01-14 11:43:00,
2013-01-14 06:48:00,60.0,60.0,27.88,West,270,0.0,3.0,100,0.00,,,0.21,Rainwise IP-100,2013-01-14 11:48:00,
2013-01-14 06:53:00,60.0,60.0,27.88,SSW,202,0.0,3.0,100,0.00,,,0.21,Rainwise IP-100,2013-01-14 11:53:00,
2013-01-14 06:58:00,60.0,59.5,27.88,WSW,247,0.0,0.0,98,0.00,,,0.21,Rainwise IP-100,2013-01-14 11:58:00,
2013-01-14 07:03:00,60.0,59.5,27.88,WSW,247,0.0,0.0,98,0.00,,,0.21,Rainwise IP-100,2013-01-14 12:03:00,
2013-01-14 07:08:00,59.0,58.0,27.88,WSW,247,0.0,0.0,98,0.00,,,0.21,Rainwise IP-100,2013-01-14 12:08:00,
2013-01-14 07:13:00,59.0,59.0,27.89,WSW,247,0.0,0.0,99,0.00,,,0.21,Rainwise IP-100,2013-01-14 12:13:00,
2013-01-14 07:18:00,59.0,59.0,27.89,WSW,247,0.0,0.0,99,0.00,,,0.21,Rainwise IP-100,2013-01-14 12:18:00,
2013-01-14 07:23:00,59.0,59.0,27.88,NNE,22,0.0,0.0,99,0.00,,,0.21,Rainwise IP-100,2013-01-14 12:23:00,
2013-01-14 07:28:00,59.0,58.0,27.88,NNE,22,0.0,0.0,98,0.00,,,0.21,Rainwise IP-100,2013-01-14 12:28:00,
2013-01-14 07:33:00,59.0,58.0,27.89,NNE,22,0.0,0.0,98,0.06,,,0.22,Rainwise IP-100,2013-01-14 12:33:00,
2013-01-14 07:38:00,59.0,58.0,27.89,North,360,0.0,2.0,97,0.06,,,0.22,Rainwise IP-100,2013-01-14 12:38:00,
2013-01-14 07:43:00,59.0,59.0,27.90,WNW,292,0.0,0.0,99,0.00,,,0.22,Rainwise IP-100,2013-01-14 12:43:00,
2013-01-14 07:48:00,59.0,59.0,27.90,WNW,292,0.0,0.0,99,0.00,,,0.22,Rainwise IP-100,2013-01-14 12:48:00,
2013-01-14 07:53:00,59.0,58.0,27.90,WNW,292,0.0,0.0,98,0.00,,,0.22,Rainwise IP-100,2013-01-14 12:53:00,
2013-01-14 07:58:00,59.0,59.0,27.90,WNW,292,0.0,0.0,99,0.00,,,0.22,Rainwise IP-100,2013-01-14 12:58:00,
2013-01-14 08:03:00,59.0,58.0,27.91,SE,135,0.0,0.0,97,0.00,,,0.22,Rainwise IP-100,2013-01-14 13:03:00,
2013-01-14 08:08:00,59.0,58.0,27.91,WSW,247,0.0,2.0,98,0.00,,,0.22,Rainwise IP-100,2013-01-14 13:08:00,
2013-01-14 08:13:00,59.0,58.0,27.91,WSW,247,0.0,0.0,97,0.00,,,0.22,Rainwise IP-100,2013-01-14 13:13:00,
2013-01-14 08:18:00,59.0,58.0,27.91,SSE,157,0.0,0.0,97,0.00,,,0.22,Rainwise IP-100,2013-01-14 13:18:00,
2013-01-14 08:23:00,59.0,57.5,27.90,SE,135,0.0,3.0,96,0.00,,,0.22,Rainwise IP-100,2013-01-14 13:23:00,
2013-01-14 08:28:00,59.0,57.5,27.90,NNE,22,0.0,1.0,96,0.00,,,0.22,Rainwise IP-100,2013-01-14 13:28:00,
2013-01-14 08:33:00,59.0,58.0,27.91,WNW,292,0.0,0.0,97,0.00,,,0.22,Rainwise IP-100,2013-01-14 13:33:00,
2013-01-14 08:38:00,59.0,58.0,27.91,North,360,0.0,0.0,97,0.00,,,0.22,Rainwise IP-100,2013-01-14 13:38:00,
2013-01-14 08:43:00,59.0,58.0,27.92,North,360,0.0,0.0,97,0.00,,,0.22,Rainwise IP-100,2013-01-14 13:43:00,
2013-01-14 08:48:00,59.0,58.0,27.92,North,360,0.0,0.0,97,0.00,,,0.22,Rainwise IP-100,2013-01-14 13:48:00,
2013-01-14 08:53:00,59.0,57.5,27.92,North,360,0.0,0.0,96,0.00,,,0.22,Rainwise IP-100,2013-01-14 13:53:00,
2013-01-14 08:58:00,59.0,58.0,27.92,North,360,0.0,0.0,97,0.00,,,0.22,Rainwise IP-100,2013-01-14 13:58:00,
2013-01-14 09:03:00,59.0,58.0,27.92,WSW,247,0.0,4.0,97,0.06,,,0.23,Rainwise IP-100,2013-01-14 14:03:00,
2013-01-14 09:08:00,59.0,58.0,27.92,NW,315,0.0,0.0,97,0.06,,,0.23,Rainwise IP-100,2013-01-14 14:08:00,
2013-01-14 09:13:00,59.0,58.0,27.92,NW,315,0.0,0.0,97,0.00,,,0.23,Rainwise IP-100,2013-01-14 14:13:00,
2013-01-14 09:18:00,59.0,58.0,27.92,NW,315,0.0,0.0,97,0.06,,,0.24,Rainwise IP-100,2013-01-14 14:18:00,
2013-01-14 09:23:00,59.0,57.5,27.92,NW,315,0.0,0.0,96,0.06,,,0.24,Rainwise IP-100,2013-01-14 14:23:00,
2013-01-14 09:28:00,59.0,58.0,27.92,NW,315,0.0,0.0,97,0.06,,,0.25,Rainwise IP-100,2013-01-14 14:28:00,
2013-01-14 09:33:00,59.0,57.5,27.93,NW,315,0.0,0.0,96,0.12,,,0.26,Rainwise IP-100,2013-01-14 14:33:00,
2013-01-14 09:38:00,59.0,58.0,27.93,NW,315,0.0,0.0,97,0.06,,,0.26,Rainwise IP-100,2013-01-14 14:38:00,
2013-01-14 09:43:00,59.0,58.0,27.93,NW,315,0.0,0.0,98,0.06,,,0.27,Rainwise IP-100,2013-01-14 14:43:00,
2013-01-14 09:48:00,59.0,59.0,27.93,NW,315,0.0,0.0,100,0.12,,,0.28,Rainwise IP-100,2013-01-14 14:48:00,
2013-01-14 09:53:00,59.0,58.0,27.93,NW,315,0.0,0.0,97,0.06,,,0.29,Rainwise IP-100,2013-01-14 14:53:00,
2013-01-14 09:58:00,59.0,58.0,27.93,NW,315,0.0,0.0,98,0.24,,,0.32,Rainwise IP-100,2013-01-14 14:58:00,
2013-01-14 10:03:00,59.0,59.0,27.94,NW,315,0.0,0.0,99,0.36,,,0.34,Rainwise IP-100,2013-01-14 15:03:00,
2013-01-14 10:08:00,59.0,59.0,27.94,NW,315,0.0,0.0,99,0.24,,,0.36,Rainwise IP-100,2013-01-14 15:08:00,
2013-01-14 10:13:00,59.0,58.0,27.93,NW,315,0.0,0.0,97,0.12,,,0.36,Rainwise IP-100,2013-01-14 15:13:00,
2013-01-14 10:18:00,59.0,58.0,27.93,NW,315,0.0,0.0,97,0.06,,,0.37,Rainwise IP-100,2013-01-14 15:18:00,
2013-01-14 10:23:00,60.0,59.0,27.92,NW,315,0.0,0.0,96,0.06,,,0.37,Rainwise IP-100,2013-01-14 15:23:00,
2013-01-14 10:28:00,59.0,58.0,27.92,NW,315,0.0,0.0,97,0.00,,,0.37,Rainwise IP-100,2013-01-14 15:28:00,
2013-01-14 10:33:00,60.0,59.0,27.92,NW,315,0.0,0.0,97,0.00,,,0.37,Rainwise IP-100,2013-01-14 15:33:00,
2013-01-14 10:38:00,60.0,59.0,27.92,NW,315,0.0,0.0,97,0.00,,,0.37,Rainwise IP-100,2013-01-14 15:38:00,
2013-01-14 10:43:00,60.0,59.0,27.92,NW,315,0.0,0.0,96,0.06,,,0.38,Rainwise IP-100,2013-01-14 15:43:00,
2013-01-14 10:48:00,60.0,59.0,27.92,NW,315,0.0,0.0,97,0.06,,,0.38,Rainwise IP-100,2013-01-14 15:48:00,
2013-01-14 10:53:00,60.0,59.0,27.92,NW,315,0.0,0.0,96,0.00,,,0.38,Rainwise IP-100,2013-01-14 15:53:00,
2013-01-14 10:58:00,60.0,59.0,27.92,NW,315,0.0,0.0,97,0.00,,,0.38,Rainwise IP-100,2013-01-14 15:58:00,
2013-01-14 11:03:00,60.0,59.0,27.92,NW,315,0.0,0.0,97,0.00,,,0.38,Rainwise IP-100,2013-01-14 16:03:00,
2013-01-14 11:08:00,60.0,59.5,27.92,NW,315,0.0,0.0,99,0.00,,,0.38,Rainwise IP-100,2013-01-14 16:08:00,
2013-01-14 11:13:00,60.0,59.5,27.91,NW,315,0.0,0.0,98,0.06,,,0.39,Rainwise IP-100,2013-01-14 16:13:00,
2013-01-14 11:18:00,60.0,60.0,27.91,NW,315,0.0,0.0,100,0.06,,,0.39,Rainwise IP-100,2013-01-14 16:18:00,
2013-01-14 11:23:00,60.0,59.5,27.91,NW,315,0.0,0.0,98,0.00,,,0.39,Rainwise IP-100,2013-01-14 16:23:00,
2013-01-14 11:28:00,59.0,57.5,27.91,West,270,0.0,0.0,95,0.00,,,0.39,Rainwise IP-100,2013-01-14 16:28:00,
2013-01-14 11:33:00,58.0,57.0,27.92,West,270,0.0,0.0,95,0.00,,,0.39,Rainwise IP-100,2013-01-14 16:33:00,
2013-01-14 11:38:00,58.0,57.0,27.92,West,270,0.0,2.0,95,0.00,,,0.39,Rainwise IP-100,2013-01-14 16:38:00,
2013-01-14 11:43:00,57.0,56.0,27.91,WNW,292,0.0,4.0,96,0.00,,,0.39,Rainwise IP-100,2013-01-14 16:43:00,
2013-01-14 11:48:00,56.0,54.5,27.91,WSW,247,0.0,3.0,96,0.00,,,0.39,Rainwise IP-100,2013-01-14 16:48:00,
2013-01-14 11:53:00,56.0,54.5,27.92,SW,225,1.0,4.0,96,0.00,,,0.39,Rainwise IP-100,2013-01-14 16:53:00,
2013-01-14 11:58:00,56.0,55.0,27.92,SW,225,0.0,3.0,97,0.00,,,0.39,Rainwise IP-100,2013-01-14 16:58:00,
2013-01-14 12:03:00,56.0,55.0,27.90,SW,225,1.0,3.0,97,0.00,,,0.39,Rainwise IP-100,2013-01-14 17:03:00,
2013-01-14 12:08:00,55.0,54.5,27.90,SW,225,0.0,2.0,98,0.00,,,0.39,Rainwise IP-100,2013-01-14 17:08:00,
2013-01-14 12:13:00,55.0,54.5,27.90,WSW,247,0.0,0.0,98,0.00,,,0.39,Rainwise IP-100,2013-01-14 17:13:00,
2013-01-14 12:18:00,54.0,54.0,27.90,West,270,0.0,2.0,99,0.00,,,0.39,Rainwise IP-100,2013-01-14 17:18:00,
2013-01-14 12:23:00,53.0,52.0,27.91,West,270,2.0,3.0,98,0.06,,,0.40,Rainwise IP-100,2013-01-14 17:23:00,
2013-01-14 12:28:00,53.0,53.0,27.91,WSW,247,2.0,3.0,100,0.06,,,0.40,Rainwise IP-100,2013-01-14 17:28:00,
2013-01-14 12:33:00,53.0,53.0,27.91,West,270,0.0,3.0,100,0.00,,,0.40,Rainwise IP-100,2013-01-14 17:33:00,
2013-01-14 12:38:00,52.0,52.0,27.91,WSW,247,0.0,3.0,100,0.00,,,0.40,Rainwise IP-100,2013-01-14 17:38:00,
2013-01-14 12:43:00,53.0,53.0,27.91,SSW,202,0.0,2.0,100,0.00,,,0.40,Rainwise IP-100,2013-01-14 17:43:00,
2013-01-14 12:48:00,52.0,52.0,27.91,WSW,247,0.0,3.0,100,0.00,,,0.41,Rainwise IP-100,2013-01-14 17:48:00,
2013-01-14 12:53:00,52.0,52.0,27.91,WNW,292,0.0,0.0,100,0.06,,,0.41,Rainwise IP-100,2013-01-14 17:53:00,
2013-01-14 12:58:00,52.0,52.0,27.91,WNW,292,0.0,2.0,100,0.06,,,0.41,Rainwise IP-100,2013-01-14 17:58:00,
2013-01-14 13:03:00,52.0,52.0,27.90,WNW,292,0.0,0.0,100,0.06,,,0.42,Rainwise IP-100,2013-01-14 18:03:00,
2013-01-14 13:08:00,52.0,52.0,27.90,West,270,0.0,2.0,100,0.06,,,0.42,Rainwise IP-100,2013-01-14 18:08:00,
2013-01-14 13:13:00,52.0,52.0,27.90,West,270,0.0,0.0,100,0.00,,,0.42,Rainwise IP-100,2013-01-14 18:13:00,
2013-01-14 13:18:00,52.0,52.0,27.90,West,270,0.0,0.0,100,0.00,,,0.42,Rainwise IP-100,2013-01-14 18:18:00,
2013-01-14 13:23:00,52.0,52.0,27.90,SSW,202,0.0,2.0,100,0.06,,,0.43,Rainwise IP-100,2013-01-14 18:23:00,
2013-01-14 13:28:00,52.0,52.0,27.90,West,270,0.0,2.0,100,0.12,,,0.44,Rainwise IP-100,2013-01-14 18:28:00,
2013-01-14 13:33:00,52.0,52.0,27.90,West,270,0.0,2.0,100,0.12,,,0.45,Rainwise IP-100,2013-01-14 18:33:00,
2013-01-14 13:38:00,52.0,52.0,27.90,West,270,0.0,0.0,100,0.12,,,0.46,Rainwise IP-100,2013-01-14 18:38:00,
2013-01-14 13:43:00,52.0,52.0,27.90,SW,225,0.0,2.0,100,0.12,,,0.47,Rainwise IP-100,2013-01-14 18:43:00,
2013-01-14 13:48:00,52.0,52.0,27.90,SSW,202,0.0,3.0,100,0.12,,,0.48,Rainwise IP-100,2013-01-14 18:48:00,
2013-01-14 13:53:00,52.0,52.0,27.90,SSW,202,0.0,2.0,100,0.12,,,0.49,Rainwise IP-100,2013-01-14 18:53:00,
2013-01-14 13:58:00,52.0,52.0,27.90,SSW,202,0.0,0.0,100,0.12,,,0.50,Rainwise IP-100,2013-01-14 18:58:00,
2013-01-14 14:03:00,52.0,52.0,27.90,SSW,202,0.0,0.0,100,0.12,,,0.51,Rainwise IP-100,2013-01-14 19:03:00,
2013-01-14 14:08:00,52.0,52.0,27.90,SSW,202,0.0,0.0,100,0.12,,,0.52,Rainwise IP-100,2013-01-14 19:08:00,
2013-01-14 14:13:00,52.0,52.0,27.90,SW,225,0.0,2.0,100,0.12,,,0.53,Rainwise IP-100,2013-01-14 19:13:00,
2013-01-14 14:18:00,52.0,52.0,27.90,South,180,0.0,3.0,100,0.12,,,0.54,Rainwise IP-100,2013-01-14 19:18:00,
2013-01-14 14:23:00,52.0,52.0,27.90,SSE,157,0.0,2.0,100,0.12,,,0.56,Rainwise IP-100,2013-01-14 19:23:00,
2013-01-14 14:28:00,52.0,52.0,27.90,SSE,157,0.0,0.0,100,0.18,,,0.57,Rainwise IP-100,2013-01-14 19:28:00,
2013-01-14 14:33:00,52.0,52.0,27.90,SSE,157,0.0,0.0,100,0.18,,,0.58,Rainwise IP-100,2013-01-14 19:33:00,
2013-01-14 14:38:00,52.0,52.0,27.90,SSE,157,0.0,0.0,100,0.12,,,0.59,Rainwise IP-100,2013-01-14 19:38:00,
2013-01-14 14:43:00,52.0,52.0,27.90,SSE,157,0.0,0.0,100,0.12,,,0.60,Rainwise IP-100,2013-01-14 19:43:00,
2013-01-14 14:48:00,52.0,52.0,27.90,SSE,157,0.0,0.0,100,0.06,,,0.61,Rainwise IP-100,2013-01-14 19:48:00,
2013-01-14 14:53:00,52.0,52.0,27.90,SSE,157,0.0,0.0,100,0.12,,,0.62,Rainwise IP-100,2013-01-14 19:53:00,
2013-01-14 14:58:00,52.0,52.0,27.90,ENE,67,0.0,0.0,100,0.18,,,0.63,Rainwise IP-100,2013-01-14 19:58:00,
2013-01-14 15:03:00,52.0,52.0,27.90,ENE,67,0.0,0.0,100,0.12,,,0.65,Rainwise IP-100,2013-01-14 20:03:00,
2013-01-14 15:08:00,52.0,52.0,27.90,ENE,67,0.0,0.0,100,0.12,,,0.65,Rainwise IP-100,2013-01-14 20:08:00,
2013-01-14 15:13:00,52.0,52.0,27.90,ESE,112,0.0,3.0,100,0.18,,,0.68,Rainwise IP-100,2013-01-14 20:13:00,
2013-01-14 15:18:00,52.0,52.0,27.90,NE,45,0.0,3.0,100,0.24,,,0.70,Rainwise IP-100,2013-01-14 20:18:00,
2013-01-14 15:23:00,53.0,53.0,27.90,NE,45,0.0,1.0,100,0.18,,,0.70,Rainwise IP-100,2013-01-14 20:23:00,
2013-01-14 15:28:00,53.0,53.0,27.90,NE,45,0.0,0.0,100,0.06,,,0.70,Rainwise IP-100,2013-01-14 20:28:00,
2013-01-14 15:33:00,53.0,53.0,27.90,NE,45,0.0,0.0,100,0.06,,,0.71,Rainwise IP-100,2013-01-14 20:33:00,
2013-01-14 15:38:00,53.0,53.0,27.90,SW,225,0.0,0.0,100,0.06,,,0.71,Rainwise IP-100,2013-01-14 20:38:00,
2013-01-14 15:43:00,53.0,53.0,27.90,WSW,247,0.0,0.0,100,0.00,,,0.71,Rainwise IP-100,2013-01-14 20:43:00,
2013-01-14 15:48:00,53.0,53.0,27.90,WSW,247,0.0,0.0,100,0.00,,,0.71,Rainwise IP-100,2013-01-14 20:48:00,
2013-01-14 15:53:00,53.0,53.0,27.91,SW,225,0.0,0.0,100,0.00,,,0.71,Rainwise IP-100,2013-01-14 20:53:00,
2013-01-14 15:58:00,53.0,53.0,27.91,SSE,157,0.0,2.0,100,0.00,,,0.71,Rainwise IP-100,2013-01-14 20:58:00,
2013-01-14 16:03:00,53.0,53.0,27.92,SSE,157,0.0,0.0,100,0.00,,,0.71,Rainwise IP-100,2013-01-14 21:03:00,
2013-01-14 16:08:00,53.0,53.0,27.92,SSE,157,0.0,0.0,100,0.00,,,0.71,Rainwise IP-100,2013-01-14 21:08:00,
2013-01-14 16:13:00,53.0,53.0,27.92,SW,225,0.0,0.0,100,0.00,,,0.71,Rainwise IP-100,2013-01-14 21:13:00,
2013-01-14 16:18:00,53.0,53.0,27.92,SW,225,0.0,0.0,100,0.06,,,0.72,Rainwise IP-100,2013-01-14 21:18:00,
2013-01-14 16:23:00,53.0,53.0,27.92,SW,225,0.0,0.0,100,0.06,,,0.72,Rainwise IP-100,2013-01-14 21:23:00,
2013-01-14 16:28:00,53.0,53.0,27.92,SW,225,0.0,0.0,100,0.00,,,0.72,Rainwise IP-100,2013-01-14 21:28:00,
2013-01-14 16:33:00,53.0,53.0,27.92,SW,225,0.0,0.0,100,0.00,,,0.72,Rainwise IP-100,2013-01-14 21:33:00,
2013-01-14 16:38:00,54.0,54.0,27.92,NNE,22,0.0,0.0,100,0.00,,,0.72,Rainwise IP-100,2013-01-14 21:38:00,
2013-01-14 16:43:00,54.0,54.0,27.92,NNE,22,0.0,0.0,100,0.00,,,0.72,Rainwise IP-100,2013-01-14 21:43:00,
2013-01-14 16:48:00,54.0,54.0,27.92,NNE,22,0.0,0.0,100,0.00,,,0.72,Rainwise IP-100,2013-01-14 21:48:00,
2013-01-14 16:53:00,54.0,54.0,27.92,NNE,22,0.0,0.0,100,0.00,,,0.72,Rainwise IP-100,2013-01-14 21:53:00,
2013-01-14 16:58:00,54.0,54.0,27.92,NNE,22,0.0,0.0,100,0.00,,,0.72,Rainwise IP-100,2013-01-14 21:58:00,
2013-01-14 17:03:00,54.0,54.0,27.92,NNE,22,0.0,0.0,100,0.00,,,0.72,Rainwise IP-100,2013-01-14 22:03:00,
2013-01-14 17:08:00,55.0,55.0,27.92,NNE,22,0.0,0.0,100,0.00,,,0.72,Rainwise IP-100,2013-01-14 22:08:00,
2013-01-14 17:13:00,55.0,55.0,27.92,NNE,22,0.0,0.0,100,0.06,,,0.73,Rainwise IP-100,2013-01-14 22:13:00,
2013-01-14 17:18:00,56.0,56.0,27.92,NNE,22,0.0,0.0,100,0.06,,,0.73,Rainwise IP-100,2013-01-14 22:18:00,
2013-01-14 17:23:00,56.0,56.0,27.92,SE,135,0.0,0.0,100,0.00,,,0.73,Rainwise IP-100,2013-01-14 22:23:00,
2013-01-14 17:28:00,56.0,56.0,27.92,SE,135,0.0,0.0,100,0.00,,,0.73,Rainwise IP-100,2013-01-14 22:28:00,
2013-01-14 17:33:00,57.0,57.0,27.91,SE,135,0.0,0.0,100,0.00,,,0.73,Rainwise IP-100,2013-01-14 22:33:00,
2013-01-14 17:38:00,57.0,57.0,27.91,SE,135,0.0,0.0,100,0.00,,,0.73,Rainwise IP-100,2013-01-14 22:38:00,
2013-01-14 17:43:00,57.0,57.0,27.91,SE,135,0.0,0.0,100,0.00,,,0.73,Rainwise IP-100,2013-01-14 22:43:00,
2013-01-14 17:48:00,57.0,57.0,27.91,SE,135,0.0,0.0,100,0.00,,,0.73,Rainwise IP-100,2013-01-14 22:48:00,
2013-01-14 17:53:00,58.0,58.0,27.92,WNW,292,0.0,1.0,100,0.00,,,0.73,Rainwise IP-100,2013-01-14 22:53:00,
2013-01-14 17:58:00,57.0,57.0,27.92,NW,315,0.0,3.0,100,0.00,,,0.73,Rainwise IP-100,2013-01-14 22:58:00,
2013-01-14 18:03:00,57.0,57.0,27.93,West,270,0.0,0.0,100,0.00,,,0.74,Rainwise IP-100,2013-01-14 23:03:00,
2013-01-14 18:08:00,57.0,57.0,27.93,West,270,0.0,0.0,100,0.18,,,0.77,Rainwise IP-100,2013-01-14 23:08:00,
2013-01-14 18:13:00,58.0,58.0,27.92,West,270,0.0,0.0,100,0.30,,,0.78,Rainwise IP-100,2013-01-14 23:13:00,
2013-01-14 18:18:00,58.0,58.0,27.92,West,270,0.0,2.0,100,0.12,,,0.78,Rainwise IP-100,2013-01-14 23:18:00,
2013-01-14 18:23:00,58.0,58.0,27.92,West,270,0.0,0.0,100,0.06,,,0.79,Rainwise IP-100,2013-01-14 23:23:00,
2013-01-14 18:28:00,58.0,58.0,27.92,West,270,0.0,0.0,100,0.06,,,0.80,Rainwise IP-100,2013-01-14 23:28:00,
2013-01-14 18:33:00,58.0,58.0,27.92,West,270,0.0,0.0,100,0.06,,,0.80,Rainwise IP-100,2013-01-14 23:33:00,
2013-01-14 18:38:00,58.0,58.0,27.92,West,270,0.0,0.0,100,0.06,,,0.80,Rainwise IP-100,2013-01-14 23:38:00,
2013-01-14 18:43:00,58.0,58.0,27.93,West,270,0.0,0.0,100,0.06,,,0.81,Rainwise IP-100,2013-01-14 23:43:00,
2013-01-14 18:48:00,58.0,58.0,27.93,West,270,0.0,0.0,100,0.06,,,0.81,Rainwise IP-100,2013-01-14 23:48:00,
2013-01-14 18:53:00,57.0,57.0,27.93,West,270,0.0,0.0,100,0.00,,,0.81,Rainwise IP-100,2013-01-14 23:53:00,
2013-01-14 18:58:00,58.0,58.0,27.93,WNW,292,0.0,0.0,100,0.00,,,0.81,Rainwise IP-100,2013-01-14 23:58:00,
2013-01-14 19:03:00,58.0,58.0,27.93,WNW,292,0.0,0.0,100,0.00,,,0.81,Rainwise IP-100,2013-01-15 00:03:00,
2013-01-14 19:08:00,58.0,58.0,27.93,WNW,292,0.0,0.0,100,0.00,,,0.81,Rainwise IP-100,2013-01-15 00:08:00,
2013-01-14 19:13:00,58.0,58.0,27.93,WNW,292,0.0,0.0,100,0.00,,,0.81,Rainwise IP-100,2013-01-15 00:13:00,
2013-01-14 19:18:00,57.0,57.0,27.93,WNW,292,1.0,2.0,100,0.00,,,0.81,Rainwise IP-100,2013-01-15 00:18:00,
2013-01-14 19:23:00,56.0,56.0,27.93,West,270,2.0,3.0,99,0.00,,,0.81,Rainwise IP-100,2013-01-15 00:23:00,
2013-01-14 19:28:00,55.0,54.0,27.93,West,270,0.0,2.0,95,0.00,,,0.81,Rainwise IP-100,2013-01-15 00:28:00,
2013-01-14 19:33:00,55.0,54.0,27.94,South,180,0.0,4.0,96,0.00,,,0.81,Rainwise IP-100,2013-01-15 00:33:00,
2013-01-14 19:38:00,53.0,51.0,27.94,SSW,202,5.0,5.0,95,0.00,,,0.81,Rainwise IP-100,2013-01-15 00:38:00,
2013-01-14 19:43:00,53.0,51.0,27.96,SW,225,0.0,5.0,96,0.18,,,0.85,Rainwise IP-100,2013-01-15 00:43:00,
2013-01-14 19:48:00,52.0,51.0,27.96,West,270,0.0,2.0,97,0.30,,,0.87,Rainwise IP-100,2013-01-15 00:48:00,
2013-01-14 19:53:00,52.0,51.0,27.96,SSE,157,1.0,1.0,97,0.18,,,0.87,Rainwise IP-100,2013-01-15 00:53:00,
2013-01-14 19:58:00,51.0,50.5,27.96,South,180,0.0,4.0,98,0.06,,,0.87,Rainwise IP-100,2013-01-15 00:58:00,
2013-01-14 20:03:00,51.0,50.5,27.97,SSW,202,1.0,3.0,98,0.00,,,0.87,Rainwise IP-100,2013-01-15 01:03:00,
2013-01-14 20:08:00,51.0,51.0,27.97,ENE,67,0.0,4.0,100,0.18,,,0.92,Rainwise IP-100,2013-01-15 01:08:00,
2013-01-14 20:13:00,51.0,51.0,27.97,WSW,247,1.0,3.0,100,0.42,,,0.94,Rainwise IP-100,2013-01-15 01:13:00,
2013-01-14 20:18:00,50.0,50.0,27.97,NW,315,2.0,7.0,100,0.24,,,0.94,Rainwise IP-100,2013-01-15 01:18:00,
2013-01-14 20:23:00,50.0,50.0,27.97,North,360,0.0,6.0,100,0.00,,,0.94,Rainwise IP-100,2013-01-15 01:23:00,
2013-01-14 20:28:00,50.0,50.0,27.97,SSW,202,1.0,4.0,99,0.00,,,0.94,Rainwise IP-100,2013-01-15 01:28:00,
2013-01-14 20:33:00,50.0,50.0,27.97,NNW,337,1.0,5.0,100,0.00,,,0.94,Rainwise IP-100,2013-01-15 01:33:00,
2013-01-14 20:38:00,50.0,50.0,27.97,WNW,292,0.0,4.0,99,0.06,,,0.95,Rainwise IP-100,2013-01-15 01:38:00,
2013-01-14 20:43:00,50.0,50.0,27.97,WSW,247,1.0,6.0,100,0.06,,,0.95,Rainwise IP-100,2013-01-15 01:43:00,
2013-01-14 20:48:00,49.0,49.0,27.97,West,270,0.0,10.0,100,0.06,,,0.96,Rainwise IP-100,2013-01-15 01:48:00,
2013-01-14 20:53:00,49.0,49.0,27.98,West,270,5.0,9.0,100,0.06,,,0.96,Rainwise IP-100,2013-01-15 01:53:00,
2013-01-14 20:58:00,49.0,49.0,27.98,NNW,337,2.0,11.0,100,0.00,,,0.96,Rainwise IP-100,2013-01-15 01:58:00,
2013-01-14 21:03:00,48.0,48.0,27.97,WNW,292,4.0,10.0,100,0.06,,,0.97,Rainwise IP-100,2013-01-15 02:03:00,
2013-01-14 21:08:00,48.0,48.0,27.97,WNW,292,6.0,9.0,100,0.06,,,0.97,Rainwise IP-100,2013-01-15 02:08:00,
2013-01-14 21:13:00,47.0,47.0,28.00,West,270,3.0,8.0,100,0.06,,,0.98,Rainwise IP-100,2013-01-15 02:13:00,
2013-01-14 21:18:00,47.0,47.0,28.00,WNW,292,1.0,9.0,100,0.06,,,0.98,Rainwise IP-100,2013-01-15 02:18:00,
2013-01-14 21:23:00,47.0,47.0,28.01,West,270,7.0,9.0,100,0.06,,,0.99,Rainwise IP-100,2013-01-15 02:23:00,
2013-01-14 21:28:00,46.0,46.0,28.01,SSE,157,2.0,8.0,100,0.18,,,1.02,Rainwise IP-100,2013-01-15 02:28:00,
2013-01-14 21:33:00,46.0,46.0,28.01,East,90,0.0,5.0,100,0.24,,,1.04,Rainwise IP-100,2013-01-15 02:33:00,
2013-01-14 21:38:00,46.0,46.0,28.01,ESE,112,3.0,10.0,100,0.24,,,1.05,Rainwise IP-100,2013-01-15 02:38:00,
2013-01-14 21:43:00,46.0,46.0,28.01,ENE,67,0.0,4.0,100,0.18,,,1.06,Rainwise IP-100,2013-01-15 02:43:00,
2013-01-14 21:48:00,46.0,46.0,28.01,ENE,67,0.0,4.0,100,0.06,,,1.06,Rainwise IP-100,2013-01-15 02:48:00,
2013-01-14 21:53:00,46.0,46.0,28.00,South,180,0.0,5.0,100,0.00,,,1.06,Rainwise IP-100,2013-01-15 02:53:00,
2013-01-14 21:58:00,46.0,46.0,28.00,West,270,0.0,4.0,100,0.00,,,1.06,Rainwise IP-100,2013-01-15 02:58:00,
2013-01-14 22:03:00,46.0,46.0,28.01,SW,225,0.0,5.0,100,0.00,,,1.07,Rainwise IP-100,2013-01-15 03:03:00,
2013-01-14 22:08:00,46.0,46.0,28.01,SW,225,1.0,2.0,100,0.06,,,1.07,Rainwise IP-100,2013-01-15 03:08:00,
2013-01-14 22:13:00,46.0,46.0,28.02,ENE,67,3.0,5.0,100,0.06,,,1.07,Rainwise IP-100,2013-01-15 03:13:00,
2013-01-14 22:18:00,46.0,46.0,28.02,North,360,0.0,4.0,100,0.00,,,1.07,Rainwise IP-100,2013-01-15 03:18:00,
2013-01-14 22:23:00,46.0,46.0,28.00,WNW,292,1.0,4.0,100,0.06,,,1.08,Rainwise IP-100,2013-01-15 03:23:00,
2013-01-14 22:28:00,45.0,45.0,28.00,SSE,157,0.0,4.0,100,0.06,,,1.08,Rainwise IP-100,2013-01-15 03:28:00,
2013-01-14 22:33:00,45.0,45.0,28.00,West,270,5.0,5.0,100,0.00,,,1.08,Rainwise IP-100,2013-01-15 03:33:00,
2013-01-14 22:38:00,45.0,45.0,28.00,West,270,3.0,7.0,100,0.00,,,1.08,Rainwise IP-100,2013-01-15 03:38:00,
2013-01-14 22:43:00,45.0,45.0,28.00,West,270,1.0,5.0,100,0.00,,,1.08,Rainwise IP-100,2013-01-15 03:43:00,
2013-01-14 22:48:00,45.0,45.0,28.00,West,270,1.0,3.0,100,0.00,,,1.08,Rainwise IP-100,2013-01-15 03:48:00,
2013-01-14 22:53:00,45.0,45.0,27.99,WNW,292,3.0,4.0,100,0.00,,,1.08,Rainwise IP-100,2013-01-15 03:53:00,
2013-01-14 22:58:00,45.0,45.0,27.99,NNW,337,0.0,5.0,100,0.00,,,1.08,Rainwise IP-100,2013-01-15 03:58:00,
2013-01-14 23:03:00,45.0,45.0,27.99,WNW,292,2.0,3.0,100,0.00,,,1.08,Rainwise IP-100,2013-01-15 04:03:00,
2013-01-14 23:08:00,45.0,45.0,27.99,WNW,292,0.0,3.0,100,0.00,,,1.08,Rainwise IP-100,2013-01-15 04:08:00,
2013-01-14 23:13:00,45.0,45.0,27.99,SW,225,0.0,2.0,100,0.00,,,1.08,Rainwise IP-100,2013-01-15 04:13:00,
2013-01-14 23:18:00,45.0,45.0,27.99,SW,225,0.0,0.0,100,0.00,,,1.08,Rainwise IP-100,2013-01-15 04:18:00,
2013-01-14 23:23:00,45.0,45.0,27.98,SW,225,0.0,0.0,100,0.00,,,1.08,Rainwise IP-100,2013-01-15 04:23:00,
2013-01-14 23:28:00,44.0,44.0,27.98,SW,225,0.0,0.0,100,0.00,,,1.08,Rainwise IP-100,2013-01-15 04:28:00,
2013-01-14 23:33:00,44.0,44.0,27.98,SW,225,0.0,0.0,100,0.00,,,1.08,Rainwise IP-100,2013-01-15 04:33:00,
2013-01-14 23:38:00,44.0,44.0,27.98,SSW,202,0.0,0.0,100,0.00,,,1.08,Rainwise IP-100,2013-01-15 04:38:00,
2013-01-14 23:43:00,44.0,44.0,27.98,ENE,67,0.0,0.0,100,0.00,,,1.08,Rainwise IP-100,2013-01-15 04:43:00,
2013-01-14 23:48:00,45.0,45.0,27.98,ENE,67,0.0,0.0,100,0.00,,,1.08,Rainwise IP-100,2013-01-15 04:48:00,
2013-01-14 23:53:00,45.0,45.0,27.99,ENE,67,0.0,0.0,100,0.00,,,1.08,Rainwise IP-100,2013-01-15 04:53:00,
2013-01-14 23:58:00,45.0,45.0,27.99,ENE,67,0.0,0.0,100,0.00,,,1.08,Rainwise IP-100,2013-01-15 04:58:00,